Wind_Speed
46 51 49 44 46 49 51 53 55 48 44 52 47 50 45 38 38 34 32 31 35 35 30 33 36 36 36 38 41 41 39 39 38 37 35 37 37 39 38 37 37 37 39 41
49 53 48 48 49 52 52 55 53 52 48 52 51 50 49 46 35 35 32 30 33 28 30 35 33 37 39 38 38 37 36 36 38 40 42 42 39 38 39 39 39 41 40 41
51 54 52 52 55 53 53 54 54 57 52 53 55 57 54 46 42 33 37 38 36 37 31 32 31 29 32 34 35 36 37 37 38 40 42 46 47 45 44 42 45 47 47 46
50 42 45 46 48 49 55 46 53 54 56 57 56 60 56 54 50 45 42 39 34 28 31 30 33 28 29 38 41 40 36 38 39 41 42 41 43 48 50 50 49 50 50 49
51 49 46 49 46 50 51 52 52 54 55 62 60 61 62 64 56 55 49 44 40 41 41 42 43 45 44 42 43 48 49 45 42 41 42 43 44 44 48 52 54 54 54 53
51 52 53 53 56 55 57 59 60 60 61 62 63 59 62 64 63 58 48 42 49 45 46 51 53 52 51 50 47 46 50 52 48 45 46 46 46 46 46 48 56 58 58 58
52 52 53 53 56 57 54 58 62 66 66 66 62 64 65 65 60 62 57 48 48 54 58 60 58 57 57 53 55 55 52 55 57 58 54 52 50 50 50 51 52 58 59 56
59 59 57 56 56 59 58 56 56 62 65 67 67 71 67 67 66 61 63 58 59 62 63 66 67 65 62 58 57 54 55 57 62 64 64 63 58 57 58 57 56 57 61 62
62 65 59 60 59 59 61 64 60 65 65 68 71 71 67 67 66 66 67 67 66 66 66 69 70 70 70 65 63 62 58 58 56 55 56 61 64 65 62 62 65 64 64 64
62 67 67 64 62 65 62 62 64 64 64 67 70 70 68 68 71 74 73 73 73 73 69 69 71 72 72 71 68 64 53 48 49 51 53 60 61 61 61 66 70 69 67 68
62 63 63 66 68 63 64 67 66 61 62 65 68 70 64 64 65 68 71 72 73 72 71 70 67 67 65 66 69 67 60 54 54 52 57 61 65 64 63 64 69 72 70 65
66 67 67 67 67 66 67 66 61 62 61 66 68 70 59 63 66 67 73 78 75 73 70 71 72 72 70 68 66 67 63 63 62 62 60 61 63 65 68 70 69 68 66 61
57 58 64 67 63 65 66 63 64 67 67 70 73 71 69 69 72 74 75 76 77 73 72 73 75 75 78 77 74 74 69 69 71 70 71 71 71 74 75 75 71 72 70 68
65 66 67 70 71 69 62 60 54 52 63 71 74 78 74 71 66 67 69 72 75 79 81 82 84 83 81 78 77 77 75 71 76 78 72 71 73 76 75 73 71 71 72 69
68 71 67 67 67 71 71 67 69 72 75 79 82 80 74 75 70 70 74 76 78 80 82 83 83 80 78 79 78 80 82 81 78 82 78 76 75 73 72 72 73 74 75 78
68 72 73 75 71 73 75 73 72 72 71 78 77 78 76 74 74 74 74 75 77 78 80 83 82 82 84 87 83 82 84 87 84 81 84 91 91 86 82 78 81 83 88 88
74 75 76 81 75 77 80 73 72 72 71 74 76 75 76 78 78 79 81 82 82 81 83 86 85 87 86 83 86 90 87 84 85 82 84 89 92 95 97 100 104 93 81 86
78 79 79 82 79 84 81 77 77 76 76 77 79 81 81 83 84 83 84 84 85 86 87 88 88 87 86 87 88 92 95 99 94 91 90 88 90 88 88 89 86 82 82 80
75 75 78 78 80 83 83 77 76 78 80 81 82 84 84 85 85 82 85 86 86 87 88 88 88 87 86 87 88 92 98 100 100 100 96 97 100 88 81 86 87 82 77 78
67 69 71 76 80 82 80 79 79 79 81 79 80 81 82 85 86 82 82 82 82 82 81 81 82 82 83 85 88 89 90 92 98 102 104 104 105 100 93 85 83 86 85 81
63 63 65 66 68 72 69 70 71 72 73 75 75 76 78 79 79 78 77 78 78 79 79 81 84 85 84 83 84 84 85 86 90 94 100 108 114 106 103 101 93 90 89 90
58 59 61 62 64 66 62 63 64 63 64 66 68 70 73 74 75 75 76 77 79 81 82 83 85 84 83 85 86 85 84 86 86 89 90 93 100 109 110 108 106 100 99 95
53 52 56 57 57 54 55 57 58 60 65 65 67 67 70 73 74 75 77 78 79 81 83 84 85 85 84 84 87 89 87 89 90 91 92 93 94 95 99 106 106 100 95 103
48 48 52 53 49 52 55 56 58 60 63 63 64 66 67 71 73 75 76 78 79 80 80 81 82 82 81 80 82 84 84 85 86 87 88 90 93 95 96 97 95 95 92 91
45 47 49 53 51 54 53 55 57 59 60 61 63 65 67 69 70 72 73 74 75 77 78 81 82 81 79 77 77 78 80 82 82 82 82 83 86 88 90 92 94 92 89 89
44 49 53 54 51 52 56 54 58 60 61 61 61 61 62 64 67 68 69 72 74 73 73 74 73 75 75 75 75 75 76 78 78 76 75 76 78 79 81 82 84 86 88 86
Wind_Direction
276 281 284 283 281 283 284 284 286 288 287 282 279 281 282 281 284 286 283 285 279 279 272 270 280 283 282 279 279 278 278 276 272 274 271 269 268 267 270 267 265 267 267 267
277 280 282 279 278 279 282 283 284 284 283 281 282 280 280 285 290 289 286 275 278 272 267 278 271 269 275 278 281 284 281 280 275 272 270 271 271 270 267 268 267 269 269 265
273 275 278 279 278 276 275 276 278 278 278 277 281 282 282 286 286 282 280 282 286 286 282 280 279 272 269 275 281 283 283 280 278 275 274 276 275 272 268 266 265 268 269 269
273 275 274 275 273 272 269 269 270 275 277 279 280 283 282 287 285 280 276 284 290 277 279 280 274 272 281 287 284 277 272 274 277 277 277 273 273 276 273 268 264 265 267 270
278 276 273 274 273 269 271 271 271 272 271 276 276 280 286 287 287 290 289 289 290 291 280 272 268 271 274 272 272 279 279 274 271 271 274 277 278 273 271 271 268 265 266 266
275 276 276 275 271 270 272 271 271 269 268 268 275 278 277 281 285 292 294 295 292 287 283 278 275 274 276 276 269 273 276 276 271 267 266 264 265 269 270 270 269 266 265 266
274 274 273 270 269 268 272 271 270 269 266 267 269 269 272 274 280 285 289 283 282 284 281 281 281 280 280 280 279 275 271 272 272 268 261 258 259 261 261 263 265 268 267 265
273 270 271 273 270 270 269 269 270 274 270 266 266 265 271 274 278 280 278 281 281 283 286 283 283 284 283 284 283 280 275 266 265 269 273 271 264 259 257 256 255 257 259 261
279 274 275 274 273 274 274 272 275 274 273 271 267 266 265 269 274 276 278 279 282 281 281 281 280 281 284 284 281 282 282 282 277 271 264 264 272 267 264 259 257 253 252 253
280 278 275 276 275 275 281 281 280 279 279 279 277 272 269 271 271 271 273 274 273 274 276 279 281 282 282 281 280 280 275 270 269 268 262 257 258 257 260 269 270 261 254 255
280 279 277 278 278 282 283 282 281 281 280 279 280 278 274 274 273 272 271 271 273 274 274 274 273 274 275 276 275 271 267 261 260 254 253 253 256 260 258 258 261 264 257 250
281 281 281 281 281 281 282 281 280 280 278 271 279 277 280 273 271 272 274 278 279 276 274 271 271 269 271 270 264 262 263 262 256 251 246 246 251 253 256 255 252 252 254 252
279 269 271 276 272 276 274 273 272 275 273 272 272 276 280 280 278 278 278 277 278 278 275 270 272 272 273 272 267 261 264 260 254 252 250 248 251 251 253 253 249 247 246 245
275 272 271 271 275 276 273 270 266 260 264 267 267 273 274 276 271 268 269 271 270 271 271 271 270 274 275 275 273 270 266 258 254 247 246 243 245 245 245 246 249 251 249 250
275 275 273 272 271 269 270 265 265 263 267 271 275 275 278 276 275 273 271 267 266 268 271 272 273 272 272 269 270 270 267 265 255 251 249 244 242 242 244 245 249 251 250 251
272 272 271 270 270 270 269 269 271 272 271 271 274 277 278 278 276 272 270 269 272 273 268 267 267 270 274 272 270 265 265 266 266 263 260 256 254 249 248 251 254 255 261 263
271 271 272 271 271 270 268 272 269 270 271 274 275 275 276 275 274 274 274 274 274 273 272 272 273 272 272 271 267 261 260 265 264 268 270 268 263 262 262 266 263 263 258 260
271 271 271 273 273 270 272 271 271 273 272 272 273 274 275 275 276 277 278 277 278 277 277 276 276 274 273 271 268 266 264 265 264 264 266 265 264 263 260 260 260 260 259 258
270 272 274 274 274 275 272 277 277 275 274 276 278 279 280 280 280 280 282 282 281 281 281 281 281 280 278 276 272 267 263 263 264 264 264 263 261 257 255 254 258 256 254 254
273 272 272 274 274 275 275 277 276 277 277 278 279 278 279 280 280 281 281 282 283 283 281 280 279 279 279 278 277 275 272 268 266 263 260 260 257 256 259 256 253 255 258 259
277 277 275 276 277 277 279 281 281 279 280 280 281 281 282 283 284 284 283 283 282 281 282 282 282 283 282 281 279 277 276 275 272 269 264 261 259 258 255 260 261 259 256 255
278 279 279 278 278 281 283 284 283 281 279 282 283 284 284 284 285 286 285 285 285 284 284 284 284 284 283 282 280 278 276 273 272 271 270 268 266 265 265 265 263 263 257 257
280 279 278 279 281 284 284 279 278 280 281 281 281 282 283 284 284 284 285 286 286 286 286 286 286 286 286 285 283 282 280 276 273 269 268 266 265 264 263 263 263 262 259 254
282 281 282 281 283 282 278 278 280 281 282 284 285 286 285 285 286 286 287 288 288 288 290 291 290 290 289 287 285 284 282 279 277 274 270 266 265 263 263 263 262 260 257 254
286 286 285 280 284 281 281 283 282 281 283 284 284 284 285 287 288 289 290 291 292 293 293 293 293 292 291 289 287 286 284 282 279 276 274 271 268 265 262 260 261 261 260 255
288 287 285 284 285 287 284 285 286 286 285 285 287 288 290 291 291 292 294 294 295 294 293 293 293 292 291 290 289 287 285 283 282 280 278 275 271 268 265 262 258 258 258 256
Height
5803 5800 5802 5803 5799 5796 5793 5791 5789 5795 5796 5786 5791 5783 5787 5793 5793 5795 5794 5793 5790 5788 5787 5782 5782 5781 5780 5779 5778 5781 5784 5784 5785 5784 5783 5782 5784 5782 5784 5784 5784 5784 5784 5784
5797 5790 5793 5791 5789 5787 5785 5781 5780 5779 5782 5776 5774 5772 5776 5780 5786 5782 5783 5781 5777 5778 5777 5775 5772 5771 5770 5770 5770 5771 5773 5775 5775 5774 5775 5774 5773 5773 5773 5774 5775 5774 5774 5773
5785 5781 5781 5781 5778 5777 5775 5771 5772 5766 5767 5767 5762 5758 5762 5773 5775 5773 5769 5771 5771 5771 5770 5768 5765 5763 5763 5763 5762 5762 5761 5761 5763 5764 5764 5764 5764 5765 5763 5764 5763 5762 5762 5763
5769 5774 5771 5768 5766 5764 5760 5763 5759 5758 5756 5752 5754 5745 5752 5756 5758 5760 5759 5756 5757 5759 5760 5759 5757 5756 5755 5754 5752 5751 5749 5749 5749 5750 5751 5752 5752 5753 5755 5752 5750 5749 5749 5751
5760 5758 5758 5757 5758 5752 5752 5749 5750 5750 5745 5742 5740 5742 5740 5740 5743 5741 5745 5745 5744 5743 5741 5742 5744 5746 5746 5743 5740 5737 5737 5736 5735 5735 5737 5739 5741 5742 5742 5742 5740 5737 5735 5735
5744 5743 5743 5744 5743 5741 5740 5739 5736 5734 5733 5730 5734 5734 5731 5729 5727 5726 5728 5730 5728 5728 5725 5722 5722 5725 5727 5730 5731 5730 5728 5726 5723 5721 5721 5721 5722 5724 5726 5728 5727 5725 5724 5723
5727 5728 5727 5728 5725 5725 5724 5722 5717 5715 5717 5720 5721 5722 5721 5718 5721 5715 5713 5711 5713 5704 5705 5706 5708 5708 5708 5708 5711 5715 5716 5712 5712 5710 5705 5703 5704 5706 5708 5710 5712 5713 5711 5710
5709 5713 5713 5714 5712 5709 5708 5707 5705 5693 5699 5703 5704 5705 5713 5711 5707 5700 5696 5695 5690 5686 5686 5686 5687 5686 5688 5688 5690 5695 5696 5697 5698 5696 5695 5693 5691 5688 5685 5686 5690 5692 5694 5695
5690 5694 5697 5696 5694 5695 5693 5690 5692 5680 5679 5676 5685 5692 5704 5697 5687 5682 5679 5677 5677 5675 5672 5671 5672 5673 5671 5673 5672 5672 5671 5672 5676 5679 5680 5679 5678 5676 5675 5673 5671 5669 5669 5672
5673 5671 5680 5679 5679 5677 5675 5675 5669 5667 5657 5653 5658 5668 5681 5682 5668 5665 5663 5662 5662 5661 5660 5659 5657 5655 5655 5654 5653 5651 5652 5654 5654 5656 5658 5658 5658 5658 5659 5659 5656 5654 5654 5655
5660 5656 5665 5656 5661 5662 5658 5653 5653 5651 5644 5635 5635 5640 5667 5652 5646 5645 5644 5642 5639 5640 5641 5642 5641 5640 5641 5642 5639 5636 5635 5637 5636 5637 5639 5640 5640 5641 5641 5640 5640 5640 5639 5639
5645 5636 5634 5643 5645 5640 5638 5635 5633 5628 5628 5621 5617 5613 5643 5629 5625 5629 5625 5622 5621 5619 5619 5619 5620 5618 5618 5620 5622 5618 5617 5617 5618 5618 5616 5616 5618 5619 5620 5620 5619 5621 5624 5624
5630 5624 5619 5619 5629 5626 5619 5621 5619 5616 5612 5606 5601 5599 5609 5608 5607 5609 5609 5606 5603 5600 5599 5597 5596 5597 5596 5595 5597 5599 5598 5596 5596 5597 5598 5597 5598 5599 5600 5600 5600 5600 5601 5604
5611 5606 5606 5604 5607 5605 5601 5601 5602 5598 5590 5587 5582 5584 5591 5588 5591 5588 5587 5585 5584 5580 5578 5575 5574 5575 5572 5569 5568 5570 5575 5577 5574 5572 5572 5574 5576 5575 5575 5577 5578 5580 5581 5583
5591 5585 5588 5586 5587 5583 5582 5581 5586 5580 5575 5563 5566 5561 5567 5561 5563 5566 5565 5564 5562 5559 5556 5553 5550 5550 5550 5548 5546 5544 5544 5546 5552 5551 5552 5552 5552 5551 5552 5554 5556 5557 5559 5559
5573 5566 5566 5562 5569 5561 5555 5562 5565 5563 5559 5549 5546 5543 5543 5538 5537 5538 5539 5538 5537 5539 5537 5534 5531 5529 5527 5524 5524 5524 5521 5518 5519 5525 5527 5528 5527 5529 5527 5530 5532 5532 5533 5534
5554 5551 5547 5535 5545 5537 5530 5549 5542 5539 5542 5532 5526 5524 5518 5515 5513 5513 5514 5513 5512 5512 5513 5511 5510 5508 5506 5502 5500 5500 5496 5494 5492 5493 5494 5496 5500 5502 5502 5499 5500 5505 5508 5510
5530 5531 5524 5514 5518 5505 5520 5522 5520 5520 5518 5513 5504 5498 5495 5492 5490 5492 5490 5489 5488 5485 5483 5483 5481 5482 5480 5477 5472 5470 5468 5466 5465 5466 5466 5465 5467 5470 5472 5475 5474 5474 5480 5483
5512 5509 5498 5493 5493 5488 5495 5500 5497 5494 5494 5488 5482 5475 5471 5466 5467 5476 5465 5464 5463 5461 5458 5454 5451 5451 5451 5447 5442 5439 5437 5435 5433 5433 5434 5435 5436 5439 5441 5443 5446 5448 5452 5458
5493 5489 5481 5477 5472 5467 5475 5477 5476 5472 5467 5466 5459 5454 5450 5444 5443 5454 5446 5441 5438 5433 5431 5428 5425 5424 5422 5420 5413 5409 5407 5403 5401 5401 5401 5403 5404 5406 5408 5413 5417 5420 5422 5428
5471 5468 5462 5460 5452 5450 5457 5456 5453 5450 5448 5438 5436 5434 5431 5425 5423 5423 5424 5418 5415 5410 5406 5400 5397 5396 5395 5390 5384 5382 5379 5377 5371 5369 5369 5368 5369 5372 5375 5380 5384 5388 5394 5402
5453 5452 5448 5442 5438 5436 5442 5437 5434 5428 5423 5421 5418 5414 5409 5405 5403 5401 5398 5395 5390 5386 5383 5378 5370 5368 5367 5359 5353 5351 5351 5345 5342 5338 5337 5337 5336 5336 5340 5342 5349 5354 5361 5370
5437 5436 5428 5429 5425 5427 5424 5417 5414 5409 5403 5406 5401 5401 5393 5387 5385 5381 5377 5373 5367 5360 5353 5348 5342 5340 5339 5331 5320 5315 5316 5309 5308 5308 5307 5306 5305 5305 5306 5308 5314 5319 5327 5335
5423 5422 5416 5412 5418 5410 5405 5403 5399 5395 5389 5390 5385 5379 5375 5368 5364 5359 5355 5350 5343 5338 5329 5321 5315 5310 5307 5304 5295 5286 5281 5275 5272 5271 5272 5272 5273 5275 5276 5277 5283 5288 5296 5301
5413 5408 5404 5397 5399 5390 5391 5385 5382 5379 5377 5372 5368 5361 5356 5351 5346 5338 5335 5329 5323 5316 5308 5299 5290 5283 5279 5272 5267 5259 5252 5243 5239 5237 5238 5237 5238 5240 5243 5246 5250 5255 5264 5270
5401 5392 5385 5382 5385 5372 5373 5372 5365 5361 5357 5353 5349 5345 5339 5333 5328 5322 5318 5310 5302 5295 5286 5278 5269 5258 5252 5246 5239 5232 5223 5213 5209 5207 5207 5205 5204 5206 5208 5212 5220 5223 5230 5237